2023/01/29 00:00:00,80.8,-5.7
2023/01/29 00:10:00,80.7,-5.5
2023/01/29 00:20:00,80.8,-5.7
2023/01/29 00:30:00,80.6,-5.7
2023/01/29 00:40:00,80.4,-5.6
2023/01/29 00:50:00,80.1,-6.2
2023/01/29 01:00:00,80.0,-5.9
2023/01/29 01:10:00,79.9,-5.9
2023/01/29 01:20:00,80.0,-6.0
2023/01/29 01:30:00,79.8,-6.0
2023/01/29 01:40:00,79.6,-6.0
2023/01/29 01:50:00,79.2,-6.0
2023/01/29 02:00:00,79.1,-6.1
2023/01/29 02:10:00,79.4,-5.9
2023/01/29 02:20:00,79.8,-6.2
2023/01/29 02:30:00,80.2,-6.1
2023/01/29 02:40:00,80.4,-5.9
2023/01/29 02:50:00,80.8,-5.7
2023/01/29 03:00:00,80.8,-5.9
2023/01/29 03:10:00,80.8,-5.8
2023/01/29 03:20:00,80.8,-5.7
2023/01/29 03:30:00,80.8,-5.8
2023/01/29 03:40:00,80.8,-6.2
2023/01/29 03:50:00,80.8,-5.8
2023/01/29 04:00:00,80.8,-5.7
2023/01/29 04:10:00,80.8,-5.9
2023/01/29 04:20:00,80.6,-6.0
2023/01/29 04:30:00,80.5,-6.0
2023/01/29 04:40:00,80.5,-6.0
2023/01/29 04:50:00,80.5,-7.1
2023/01/29 05:00:00,80.7,-5.6
2023/01/29 05:10:00,80.5,-5.6
2023/01/29 05:20:00,80.5,-5.5
2023/01/29 05:30:00,80.4,-5.8
2023/01/29 05:40:00,80.0,-5.6
2023/01/29 05:50:00,79.8,-6.0
2023/01/29 06:00:00,79.9,-5.9
2023/01/29 06:10:00,80.8,-5.5
2023/01/29 06:20:00,80.9,-5.8
2023/01/29 06:30:00,80.9,-5.5
2023/01/29 06:40:00,81.1,-5.4
2023/01/29 06:50:00,81.2,-5.6
2023/01/29 07:00:00,81.3,-5.6
2023/01/29 07:10:00,81.1,-5.3
2023/01/29 07:20:00,80.9,-5.5
2023/01/29 07:30:00,81.1,-5.4
2023/01/29 07:40:00,81.6,-5.4
2023/01/29 07:50:00,81.4,-5.3
2023/01/29 08:00:00,81.3,-5.2
2023/01/29 08:10:00,81.3,-4.7
2023/01/29 08:20:00,81.1,-4.9
2023/01/29 08:30:00,81.3,-3.6
2023/01/29 08:40:00,81.1,-3.9
2023/01/29 08:50:00,80.8,-3.2
2023/01/29 09:00:00,81.1,-3.0
2023/01/29 09:10:00,81.0,-3.5
2023/01/29 09:20:00,81.0,-3.2
2023/01/29 09:30:00,80.9,-2.6
2023/01/29 09:40:00,81.0,-2.0
2023/01/29 09:50:00,80.8,-1.4
2023/01/29 10:00:00,80.8,-0.8
2023/01/29 10:10:00,80.7,-1.1
2023/01/29 10:20:00,80.5,-1.4
2023/01/29 10:30:00,80.4,-0.7
2023/01/29 10:40:00,80.3,-0.2
2023/01/29 10:50:00,80.2,-0.2
2023/01/29 11:00:00,80.1, 0.6
2023/01/29 11:10:00,79.9, 1.1
2023/01/29 11:20:00,79.8, 0.8
2023/01/29 11:30:00,79.7, 0.5
2023/01/29 11:40:00,79.4, 0.0
2023/01/29 11:50:00,79.1,-0.1
2023/01/29 12:00:00,78.8, 0.0
2023/01/29 12:10:00,78.8, 0.1
2023/01/29 12:20:00,78.7, 0.1
2023/01/29 12:30:00,78.4, 0.3
2023/01/29 12:40:00,78.1,-0.2
2023/01/29 12:50:00,77.9, 0.2
2023/01/29 13:00:00,77.9, 0.5
2023/01/29 13:10:00,77.7, 0.7
2023/01/29 13:20:00,77.5, 0.7
2023/01/29 13:30:00,77.4, 0.9
2023/01/29 13:40:00,77.1, 1.0
2023/01/29 13:50:00,76.9, 0.0
2023/01/29 14:00:00,76.7, 0.3
2023/01/29 14:10:00,76.5, 0.7
2023/01/29 14:20:00,76.4, 0.3
2023/01/29 14:30:00,76.2, 0.1
2023/01/29 14:40:00,76.0, 0.7
2023/01/29 14:50:00,75.8, 0.4
2023/01/29 15:00:00,75.6, 0.1
2023/01/29 15:10:00,75.4,-0.6
2023/01/29 15:20:00,75.3,-0.7
2023/01/29 15:30:00,75.1,-0.7
2023/01/29 15:40:00,75.0,-0.6
2023/01/29 15:50:00,74.9,-0.7
2023/01/29 16:00:00,74.9,-1.4
2023/01/29 16:10:00,74.9,-1.3
2023/01/29 16:20:00,74.7,-1.6
2023/01/29 16:30:00,74.6,-1.3
2023/01/29 16:40:00,74.5,-1.5
2023/01/29 16:50:00,74.2,-2.3
2023/01/29 17:00:00,74.2,-2.8
2023/01/29 17:10:00,74.1,-2.3
2023/01/29 17:20:00,74.0,-2.7
2023/01/29 17:30:00,73.9,-3.1
2023/01/29 17:40:00,73.9,-3.3
2023/01/29 17:50:00,73.8,-3.2
2023/01/29 18:00:00,73.7,-3.2
2023/01/29 18:10:00,73.6,-3.0
2023/01/29 18:20:00,73.6,-3.5
2023/01/29 18:30:00,73.6,-3.5
2023/01/29 18:40:00,73.4,-4.1
2023/01/29 18:50:00,73.2,-4.1
2023/01/29 19:00:00,73.1,-4.5
2023/01/29 19:10:00,73.0,-4.4
2023/01/29 19:20:00,72.9,-4.9
2023/01/29 19:30:00,72.8,-5.2
2023/01/29 19:40:00,72.7,-5.4
2023/01/29 19:50:00,72.7,-5.6
2023/01/29 20:00:00,72.6,-5.6
2023/01/29 20:10:00,72.6,-6.0
2023/01/29 20:20:00,72.4,-6.0
2023/01/29 20:30:00,72.3,-6.1
2023/01/29 20:40:00,72.3,-6.2
2023/01/29 20:50:00,72.3,-6.0
2023/01/29 21:00:00,72.2,-5.9
2023/01/29 21:10:00,72.1,-6.6
2023/01/29 21:20:00,72.1,-6.4
2023/01/29 21:30:00,72.0,-6.9
2023/01/29 21:40:00,72.0,-6.3
2023/01/29 21:50:00,72.0,-6.5
2023/01/29 22:00:00,71.9,-6.2
2023/01/29 22:10:00,71.8,-6.3
2023/01/29 22:20:00,71.7,-6.5
2023/01/29 22:30:00,71.6,-6.6
2023/01/29 22:40:00,71.5,-7.0
2023/01/29 22:50:00,71.4,-7.1
2023/01/29 23:00:00,71.3,-6.6
2023/01/29 23:10:00,71.2,-7.6
2023/01/29 23:20:00,71.2,-7.0
2023/01/29 23:30:00,71.1,-7.3
2023/01/29 23:40:00,71.1,-6.3
2023/01/29 23:50:00,71.0,-6.0
